Location: *
(13.2257°S, 48.7193°W)
Time: 23:31:17
(UTC+00:00)

SL-16 R/B - Pass Details

Date: 22 May 2026
Orbit: 984 x 1007 km, 99.8° (Epoch: 7 June)

Event Time Altitude Azimuth Distance (km) Brightness Sun altitude
Rises 06:57:54 0° 145° (SE) 3,744 5.8 -35.6°
Reaches altitude 10° 07:00:54 10° 132° (SE) 2,789 5.2 -34.9°
Maximum altitude 07:05:53 25° 79° (E) 1,910 4.6 -33.7°
Drops below altitude 10° 07:10:49 10° 26° (NNE) 2,769 5.3 -32.6°
Sets 07:13:45 0° 13° (NNE) 3,711 5.9 -31.9°
